Toledo Express Airport
KTOL : now visible

Airfield :











YOU CAN JOIN US ON...

 
LOGIN :

Register | Disclaimer

   EN    FR    IT 

 









Legend :    VFR   Marginal VFR   IFR   Intensive IFR   Very Intensive IFR
Visi :
Ceiling :
>= 8 km
>= 3000ft
5 to 8 km
1000 to 3000 ft
1500m to 5 km
500 to 1000 ft
800 to 1500m
200 to 500 ft
< 800m
< 200 ft
Symbols :   Thunderstorms  Fog  Heavy snow  Heavy precipitations  Wind > 20 kt






- Airport Elevation : 683 ft
- IATA code : TOL


KTOL - Toledo Express

CURRENT METAR :
  • 271552Z 36008KT 10SM CLR M04/M09 A3031 RMK AO2 SLP272 T10441094

EXPIRED METARs :
  • 271452Z 01009KT 10SM CLR M05/M09 A3030 RMK AO2 SLP270 T10501094 51021
  • 271352Z 35006KT 10SM CLR M06/M10 A3027 RMK AO2 PRESRR SLP262 T10611100

TAF KTOL
Valid from the 27 at 12:00 until the 28 at 12:00 UTC


271124Z 2712/2812 35007KT P6SM FEW110
FM272200 36010KT P6SM BKN045
FM280000 36010KT P6SM BKN030
FM280400 36009KT P6SM SCT020
FM281100 33008KT P6SM FEW150
KZOB FIR / North America



MET'MAP, your aeronautical weather chart ! - Copyright ORBIFLY December 2007 - Disclaimer

ORBIFLY MET'MAP TEAM :

Programming & Development : Alexandra Zaïnal
Concept & original design : Baudouin d'Aumeries
Assistance for programming : Marc-Olivier Méhu
Technical & hardware support : Manuel Goepfert

Contact : metmap@orbifly.com




SOURCES & CREDITS :

   NOAA       Earth
Advisory